TimeCST,TemperatureF,Dew PointF,Humidity,Sea Level PressureIn,VisibilityMPH,Wind Direction,Wind SpeedMPH,Gust SpeedMPH,PrecipitationIn,Events,Conditions,WindDirDegrees,DateUTC
12:15 AM,63.5,60.8,91,29.87,10.0,SSE,5.8,-,N/A,,Clear,150,2013-02-05 06:15:00
12:35 AM,63.1,60.8,92,29.87,10.0,SSE,5.8,-,N/A,,Clear,160,2013-02-05 06:35:00
12:55 AM,62.8,60.4,92,29.87,10.0,SSE,4.6,-,N/A,,Clear,160,2013-02-05 06:55:00
1:15 AM,62.6,60.6,93,29.87,10.0,SE,3.5,-,N/A,,Clear,140,2013-02-05 07:15:00
1:35 AM,61.9,59.9,93,29.87,10.0,SSE,4.6,-,N/A,,Clear,150,2013-02-05 07:35:00
1:55 AM,62.2,60.6,94,29.87,7.0,Calm,Calm,-,N/A,,Clear,0,2013-02-05 07:55:00
2:15 AM,60.6,59.0,94,29.87,0.5,Calm,Calm,-,N/A,Fog,Fog,0,2013-02-05 08:15:00
2:35 AM,61.0,59.5,95,29.87,0.5,Calm,Calm,-,N/A,Fog,Fog,0,2013-02-05 08:35:00
2:55 AM,60.8,59.5,96,29.87,0.5,South,3.5,-,N/A,Fog,Fog,180,2013-02-05 08:55:00
3:15 AM,59.4,58.1,96,29.87,0.2,South,4.6,-,N/A,Fog,Fog,190,2013-02-05 09:15:00
3:35 AM,58.5,57.4,96,29.87,0.2,South,4.6,-,N/A,Fog,Fog,190,2013-02-05 09:35:00
3:55 AM,58.5,57.4,96,29.87,0.2,SSW,4.6,-,N/A,Fog,Fog,200,2013-02-05 09:55:00
4:15 AM,58.1,57.0,96,29.88,0.2,South,3.5,-,N/A,Fog,Fog,190,2013-02-05 10:15:00
4:35 AM,57.4,56.3,96,29.88,0.5,Calm,Calm,-,N/A,Fog,Fog,0,2013-02-05 10:35:00
4:55 AM,58.3,57.2,96,29.88,0.2,South,4.6,-,N/A,Fog,Fog,180,2013-02-05 10:55:00
5:15 AM,57.4,56.3,96,29.88,0.2,South,4.6,-,N/A,Fog,Fog,170,2013-02-05 11:15:00
5:35 AM,57.2,56.3,97,29.89,0.2,SSE,4.6,-,N/A,Fog,Fog,160,2013-02-05 11:35:00
6:15 AM,58.6,57.6,96,29.90,4.0,SE,3.5,-,N/A,,Clear,140,2013-02-05 12:15:00
6:35 AM,59.2,58.3,97,29.90,4.0,Calm,Calm,-,N/A,,Mostly Cloudy,0,2013-02-05 12:35:00
6:55 AM,58.1,57.2,97,29.92,0.2,South,3.5,-,N/A,Fog,Fog,170,2013-02-05 12:55:00
7:15 AM,58.1,57.2,97,29.92,0.2,Calm,Calm,-,N/A,Fog,Fog,0,2013-02-05 13:15:00
7:35 AM,58.3,57.4,97,29.92,0.2,Calm,Calm,-,N/A,Fog,Fog,0,2013-02-05 13:35:00
7:55 AM,60.1,59.2,97,29.93,0.2,South,3.5,-,N/A,Fog,Fog,180,2013-02-05 13:55:00
8:15 AM,60.8,59.7,96,29.93,0.2,Calm,Calm,-,N/A,Fog,Fog,0,2013-02-05 14:15:00
8:35 AM,61.7,60.8,97,29.94,0.5,Calm,Calm,-,N/A,Fog,Fog,0,2013-02-05 14:35:00
8:55 AM,63.7,62.8,97,29.94,3.0,Calm,Calm,-,N/A,,Overcast,0,2013-02-05 14:55:00
9:15 AM,65.5,64.4,96,29.95,10.0,SSW,4.6,-,N/A,,Mostly Cloudy,200,2013-02-05 15:15:00
10:15 AM,72.9,65.8,79,29.97,10.0,SW,5.8,-,N/A,,Clear,230,2013-02-05 16:15:00
10:55 AM,75.9,65.1,69,29.96,10.0,WSW,3.5,-,N/A,,Scattered Clouds,240,2013-02-05 16:55:00
11:15 AM,77.7,64.4,63,29.96,10.0,Calm,Calm,-,N/A,,Clear,0,2013-02-05 17:15:00
11:35 AM,79.2,63.0,57,29.95,10.0,Calm,Calm,-,N/A,,Clear,0,2013-02-05 17:35:00
11:55 AM,80.8,62.2,53,29.94,10.0,SSW,3.5,-,N/A,,Clear,200,2013-02-05 17:55:00
12:15 PM,83.1,59.9,45,29.94,10.0,Calm,Calm,-,N/A,,Clear,0,2013-02-05 18:15:00
12:55 PM,85.5,56.1,37,29.92,10.0,ESE,3.5,-,N/A,,Clear,110,2013-02-05 18:55:00
1:15 PM,86.2,54.5,34,29.91,10.0,ESE,3.5,-,N/A,,Clear,120,2013-02-05 19:15:00
1:35 PM,86.4,51.6,30,29.90,10.0,SE,4.6,-,N/A,,Clear,130,2013-02-05 19:35:00
1:55 PM,86.0,51.3,30,29.88,10.0,Calm,Calm,-,N/A,,Clear,0,2013-02-05 19:55:00
2:15 PM,88.0,50.0,27,29.88,10.0,SSE,3.5,-,N/A,,Clear,150,2013-02-05 20:15:00
2:35 PM,87.3,50.0,28,29.87,10.0,NE,4.6,-,N/A,,Clear,50,2013-02-05 20:35:00
2:55 PM,86.9,49.8,28,29.87,10.0,NE,4.6,-,N/A,,Clear,50,2013-02-05 20:55:00
3:15 PM,86.2,49.3,28,29.86,10.0,Calm,Calm,-,N/A,,Clear,0,2013-02-05 21:15:00
3:55 PM,87.1,61.0,41,29.85,10.0,ESE,12.7,20.7,N/A,,Clear,120,2013-02-05 21:55:00
4:15 PM,86.0,60.1,41,29.85,10.0,ESE,13.8,-,N/A,,Clear,120,2013-02-05 22:15:00
5:15 PM,83.5,59.2,44,29.86,10.0,ESE,15.0,-,N/A,,Clear,110,2013-02-05 23:15:00
5:35 PM,82.2,59.2,45,29.86,10.0,ESE,16.1,-,N/A,,Clear,110,2013-02-05 23:35:00
5:55 PM,79.9,61.2,53,29.87,10.0,ESE,13.8,-,N/A,,Clear,120,2013-02-05 23:55:00
6:15 PM,76.5,64.4,66,29.87,10.0,ESE,17.3,-,N/A,,Clear,120,2013-02-06 00:15:00
6:35 PM,74.3,65.8,75,29.88,10.0,ESE,17.3,-,N/A,,Clear,120,2013-02-06 00:35:00
6:55 PM,73.2,65.7,77,29.89,10.0,ESE,13.8,-,N/A,,Clear,120,2013-02-06 00:55:00
7:15 PM,72.5,66.2,81,29.90,10.0,ESE,12.7,-,N/A,,Clear,120,2013-02-06 01:15:00
7:35 PM,72.1,66.4,82,29.90,10.0,ESE,13.8,19.6,N/A,,Clear,120,2013-02-06 01:35:00
7:55 PM,71.8,66.9,85,29.91,10.0,ESE,13.8,-,N/A,,Clear,120,2013-02-06 01:55:00
8:15 PM,71.6,67.1,86,29.92,10.0,ESE,11.5,-,N/A,,Clear,110,2013-02-06 02:15:00
8:35 PM,71.6,67.1,86,29.92,10.0,ESE,10.4,-,N/A,,Scattered Clouds,120,2013-02-06 02:35:00
8:55 PM,71.6,67.3,86,29.92,10.0,ESE,12.7,-,N/A,,Clear,120,2013-02-06 02:55:00
9:15 PM,71.6,67.5,87,29.92,10.0,SE,13.8,-,N/A,,Clear,130,2013-02-06 03:15:00
9:35 PM,71.6,67.5,87,29.92,10.0,ESE,13.8,-,N/A,,Clear,120,2013-02-06 03:35:00
9:55 PM,71.6,67.5,87,29.91,10.0,SE,13.8,-,N/A,,Clear,130,2013-02-06 03:55:00
10:15 PM,71.2,67.3,87,29.93,10.0,ESE,11.5,-,N/A,,Clear,120,2013-02-06 04:15:00
10:35 PM,70.9,67.3,88,29.93,10.0,ESE,10.4,-,N/A,,Scattered Clouds,120,2013-02-06 04:35:00
10:55 PM,70.9,67.3,88,29.94,10.0,ESE,10.4,-,N/A,,Mostly Cloudy,120,2013-02-06 04:55:00
11:15 PM,71.2,67.6,88,29.93,10.0,SE,12.7,-,N/A,,Overcast,130,2013-02-06 05:15:00
11:35 PM,71.6,67.8,88,29.94,10.0,SE,11.5,-,N/A,,Overcast,130,2013-02-06 05:35:00
11:55 PM,71.1,68.0,90,29.96,10.0,SSE,5.8,-,N/A,,Mostly Cloudy,150,2013-02-06 05:55:00